Stations météo

réclame
Mon MeteoGroup
Grosseto, Italie (16206): Température de l'air & dewpoint: 12.10.2017 07:00:00 - 18.10.2017 07:00:00 (CEST)Grosseto, Italie (16206): Vitesse du vent: 12.10.2017 07:00:00 - 18.10.2017 07:00:00 (CEST)Grosseto, Italie (16206): Direction du vent: 12.10.2017 07:00:00 - 18.10.2017 07:00:00 (CEST)Grosseto, Italie (16206): reduced air pressure: 12.10.2017 07:00:00 - 18.10.2017 07:00:00 (CEST)Grosseto, Italie (16206): visibility: 12.10.2017 07:00:00 - 18.10.2017 07:00:00 (CEST)
Date & Time tt [°C] td [°C] ff [km/h] ff [knt] dd ppp [hPa] vv [km]
18.10.2017 07:00:00 12,8 9,1 11 6 E 1021,4 0,7
18.10.2017 06:00:00 13,0 10,4 9 5 E 1021,7 0,5
18.10.2017 05:00:00 12,6 10,1 5 3 ENE 1022,0 8
18.10.2017 04:00:00 12,4 10,0 8 4 E 1022,3 8
18.10.2017 03:00:00 12,4 10,3 8 4 NNE 1022,5 8
18.10.2017 02:00:00 12,6 10,5 8 4 NNE 1022,7 8
18.10.2017 01:00:00 13,4 11,3 5 3 NNE 1022,9 8
18.10.2017 00:00:00 13,4 11,3 8 4 N 1022,9 8
17.10.2017 23:00:00 15,6 13,4 2 1 NW 1022,9 8
17.10.2017 22:00:00 15,8 14,0 2 1 SSE 1022,9 8
17.10.2017 21:00:00 17,0 15,4 2 1 N 1022,8 8
17.10.2017 20:00:00 18,2 16,4 2 1 S 1022,8 10
17.10.2017 19:00:00 19,4 17,2 4 2 SW 1022,9 10
17.10.2017 18:00:00 21,8 17,6 15 8 SW 1022,9 10
17.10.2017 17:00:00 23,2 15,8 15 8 SW 1022,9 10
17.10.2017 16:00:00 23,4 14,7 13 7 SW 1023,2 10
17.10.2017 15:00:00 23,8 13,4 18 10 SW 1023,9 10
17.10.2017 14:00:00 23,6 11,6 15 8 SW 1024,5 10
17.10.2017 13:00:00 22,6 10,7 8 4 SW 1025,2 10
17.10.2017 12:00:00 18,6 8,6 4 2 N 1025,6 10
17.10.2017 11:00:00 16,6 8,6 8 4 ENE 1026,0 10
17.10.2017 10:00:00 13,0 8,1 8 4 NE 1026,0 10
17.10.2017 09:00:00 10,6 8,5 5 3 NE 1025,8 10
17.10.2017 08:00:00 10,0 8,3 5 3 NE 1025,0 10
17.10.2017 07:00:00 11,2 9,3 8 4 NNE 1025,0 10
17.10.2017 06:00:00 12,0 9,2 8 4 NE 1025,0 10
17.10.2017 05:00:00 12,2 9,0 5 3 ENE 1025,2 10
17.10.2017 04:00:00 12,6 9,2 8 4 NNE 1025,8 10
17.10.2017 03:00:00 13,0 9,6 5 3 E 1025,6 10
17.10.2017 02:00:00 13,8 11,9 5 3 ENE 1026,8 10
17.10.2017 01:00:00 13,8 9,4 4 2 NE 1026,8 10
17.10.2017 00:00:00 14,0 10,4 5 3 NE 1026,8 10
16.10.2017 23:00:00 16,0 13,5 8 4 N 1026,8 10
16.10.2017 22:00:00 16,8 14,4 4 2 E 1026,4 10
16.10.2017 21:00:00 18,4 16,7 8 4 SE 1026,0 10
16.10.2017 20:00:00 19,4 17,2 4 2 SSE 1026,1 10
16.10.2017 19:00:00 20,4 12,4 8 4 S 1025,8 10
16.10.2017 18:00:00 25,4 8,8 11 6 SW 1025,8 10
16.10.2017 17:00:00 25,8 4,9 16 9 SW 1026,0 10
16.10.2017 16:00:00 25,8 5,4 15 8 SW 1026,4 10
16.10.2017 15:00:00 25,8 8,3 15 8 SW 1026,7 10
16.10.2017 14:00:00 25,6 9,0 13 7 SW 1027,0 10
16.10.2017 13:00:00 22,0 5,9 4 2 WNW 1027,8 10
16.10.2017 12:00:00 19,0 7,8 2 1 WNW 1027,9 10
16.10.2017 11:00:00 16,0 8,0 2 1 NNE 1027,9 10
16.10.2017 10:00:00 12,2 8,5 8 4 NE 1027,7 10
16.10.2017 09:00:00 11,0 8,4 8 4 ENE 1027,3 10
16.10.2017 08:00:00 10,8 8,4 5 3 NE 1027,1 10
16.10.2017 07:00:00 11,0 8,4 8 4 ENE 1027,1 10
16.10.2017 06:00:00 11,6 9,2 5 3 NNE 1027,1 10
16.10.2017 05:00:00 12,0 9,5 5 3 NE 1027,1 15
16.10.2017 04:00:00 12,0 9,4 8 4 NE 1027,5 10
16.10.2017 03:00:00 13,6 10,0 8 4 ENE 1027,9 10
16.10.2017 02:00:00 14,0 10,6 5 3 ENE 1027,9 10
16.10.2017 01:00:00 14,4 11,4 5 3 ENE 1027,9 10
16.10.2017 00:00:00 15,0 12,7 5 3 N 1027,9 10
15.10.2017 23:00:00 15,8 14,0 5 3 NE 1027,3 10
15.10.2017 22:00:00 15,8 14,0 4 2 N 1027,1 10
15.10.2017 21:00:00 17,8 13,9 5 3 E 1027,0 10
15.10.2017 20:00:00 18,0 14,5 8 4 ESE 1026,6 10
15.10.2017 19:00:00 21,2 13,6 4 2 - 1026,6 10
15.10.2017 18:00:00 24,0 11,7 11 6 SW 1026,3 10
15.10.2017 17:00:00 24,8 10,3 13 7 SW 1026,6 10
15.10.2017 16:00:00 25,2 8,2 15 8 SW 1026,7 10
15.10.2017 15:00:00 25,2 9,1 13 7 SW 1027,1 10
15.10.2017 14:00:00 25,0 8,5 4 2 - 1027,5 10
15.10.2017 13:00:00 22,0 8,5 4 2 - 1028,1 10
15.10.2017 12:00:00 19,2 11,0 4 2 - 1028,9 10
15.10.2017 11:00:00 17,2 11,2 2 1 - 1028,8 10
15.10.2017 10:00:00 14,4 10,2 2 1 - 1028,7 10
15.10.2017 09:00:00 11,2 8,2 4 2 E 1028,3 7
15.10.2017 08:00:00 11,0 8,2 5 3 NE 1028,0 7
15.10.2017 07:00:00 11,4 8,6 8 4 ENE 1027,9 10
15.10.2017 06:00:00 12,0 9,7 5 3 NE 1027,8 10
15.10.2017 05:00:00 12,0 9,7 8 4 NE 1027,7 10
15.10.2017 04:00:00 12,2 9,9 5 3 N 1027,8 10
15.10.2017 03:00:00 12,4 10,1 5 3 NNE 1027,9 10
15.10.2017 02:00:00 14,8 12,7 5 3 NE 1027,9 10
15.10.2017 01:00:00 15,0 12,9 5 3 NE 1027,9 10
15.10.2017 00:00:00 15,2 13,1 4 2 N 1027,6 10
14.10.2017 23:00:00 15,6 13,4 5 3 NNE 1027,6 10
14.10.2017 22:00:00 16,2 14,0 5 3 NNE 1027,5 10
14.10.2017 21:00:00 18,0 15,6 8 4 E 1027,0 10
14.10.2017 20:00:00 18,8 16,0 8 4 E 1026,9 10
14.10.2017 19:00:00 20,0 16,0 8 4 S 1026,2 10
14.10.2017 18:00:00 23,0 14,8 13 7 SW 1026,2 10
14.10.2017 17:00:00 24,2 13,4 15 8 SW 1026,3 10
14.10.2017 16:00:00 24,2 11,9 13 7 SSW 1026,1 10
14.10.2017 15:00:00 24,0 12,6 11 6 SW 1026,9 10
14.10.2017 14:00:00 23,8 12,1 5 3 NW 1027,0 10
14.10.2017 13:00:00 22,0 10,8 4 2 - 1027,7 10
14.10.2017 12:00:00 19,8 12,5 4 2 N 1027,9 10
14.10.2017 11:00:00 17,0 11,5 4 2 - 1027,9 10
14.10.2017 10:00:00 15,0 11,2 5 3 NE 1027,7 10
14.10.2017 09:00:00 12,0 8,8 5 3 NE 1027,1 8
14.10.2017 08:00:00 11,6 9,4 8 4 NE 1026,8 7
14.10.2017 07:00:00 12,4 10,0 4 2 NNE 1026,5 8
14.10.2017 06:00:00 13,0 10,9 5 3 NNE 1026,5 8
14.10.2017 05:00:00 14,0 11,9 4 2 ENE 1026,6 8
14.10.2017 04:00:00 14,4 12,4 11 6 NNE 1026,7 8
14.10.2017 03:00:00 14,4 12,4 8 4 NNE 1026,6 8
14.10.2017 02:00:00 15,0 13,0 8 4 NNE 1026,2 8
14.10.2017 01:00:00 15,4 13,1 8 4 NE 1026,1 8
14.10.2017 00:00:00 16,4 12,5 2 1 E 1026,0 8
13.10.2017 23:00:00 16,6 13,1 4 2 N 1026,1 8
13.10.2017 22:00:00 17,0 14,7 2 1 NE 1026,0 8
13.10.2017 21:00:00 17,6 14,5 8 4 ENE 1025,5 8
13.10.2017 20:00:00 19,4 15,3 4 2 ESE 1025,2 10
13.10.2017 19:00:00 21,0 14,9 9 5 WSW 1024,8 10
13.10.2017 18:00:00 23,0 14,3 21 11 WSW 1024,8 10
13.10.2017 17:00:00 24,8 15,7 21 11 SW 1024,9 10
13.10.2017 16:00:00 24,0 15,2 21 11 SW 1025,2 10
13.10.2017 15:00:00 23,8 14,2 18 10 WSW 1025,7 10
13.10.2017 14:00:00 23,0 12,9 4 2 - 1026,1 10
13.10.2017 13:00:00 21,6 12,5 8 4 NNE 1026,8 10
13.10.2017 12:00:00 20,0 12,7 5 3 - 1027,1 10
13.10.2017 11:00:00 18,0 13,1 4 2 N 1027,1 10
13.10.2017 10:00:00 14,8 11,2 4 2 N 1027,2 8
13.10.2017 09:00:00 12,0 8,3 2 1 ENE 1026,9 7
13.10.2017 08:00:00 11,6 8,3 8 4 NNE 1026,8 6
13.10.2017 07:00:00 12,0 9,0 4 2 NE 1025,9 8
13.10.2017 06:00:00 13,4 10,9 4 2 ENE 1025,9 10
13.10.2017 05:00:00 13,8 11,3 4 2 ENE 1025,9 10
13.10.2017 04:00:00 13,8 11,3 8 4 NE 1025,9 10
13.10.2017 03:00:00 13,2 11,4 8 4 NNE 1026,0 10
13.10.2017 02:00:00 14,0 11,0 5 3 N 1025,9 8
13.10.2017 01:00:00 14,8 12,8 5 3 E 1025,9 8
13.10.2017 00:00:00 15,2 12,9 4 2 N 1026,0 8
12.10.2017 23:00:00 16,0 13,7 4 2 E 1026,0 8
12.10.2017 22:00:00 17,0 14,7 4 2 E 1025,9 10
12.10.2017 21:00:00 18,2 16,0 2 1 WNW 1025,9 10
12.10.2017 20:00:00 19,2 16,3 2 1 N 1025,7 10
12.10.2017 19:00:00 20,4 17,2 9 5 WSW 1025,1 10
12.10.2017 18:00:00 21,8 16,3 18 10 SW 1024,8 10
12.10.2017 17:00:00 22,6 14,7 21 11 WSW 1024,9 10
12.10.2017 16:00:00 22,6 13,7 21 11 SW 1025,0 10
12.10.2017 15:00:00 22,6 13,4 21 11 SW 1025,0 10
12.10.2017 14:00:00 22,4 12,7 15 8 WSW 1025,1 10
12.10.2017 13:00:00 21,8 11,5 4 2 S 1025,6 10
12.10.2017 12:00:00 19,8 11,6 5 3 NNW 1025,8 10
12.10.2017 11:00:00 17,4 10,3 4 2 NE 1025,8 10
12.10.2017 10:00:00 14,0 9,0 8 4 NE 1025,6 10
12.10.2017 09:00:00 12,0 8,7 8 4 ENE 1025,4 10
12.10.2017 08:00:00 10,4 7,8 8 4 ENE 1024,9 10
12.10.2017 07:00:00 11,2 8,6 5 3 NNE 1024,5 10

tt = Température de l'air
td = dewpoint
ff = Vitesse du vent
dd = Direction du vent
ppp = reduced air pressure
vv = visibility

stations d'obs. à proximité